Wind_Speed
4 4 3 3 3 3 3 3 3 3 3 2 2 2 2 3 3 3 2 2 3 3 3 3 3 3 4 4 4 4 4 4 4 5 5 5 5 5 5 4 4 3 4
5 5 5 5 4 4 4 4 4 4 4 4 3 3 3 3 4 4 4 3 3 3 4 4 4 4 4 4 4 5 5 5 5 5 6 6 6 6 6 6 6 6 5
5 5 5 5 5 5 4 4 5 5 5 5 5 5 4 5 5 5 5 5 5 5 5 5 6 5 5 5 5 5 5 6 6 6 7 7 6 7 7 7 7 7 7
6 6 6 6 5 5 5 5 5 5 5 5 6 6 5 5 6 6 6 6 6 6 6 6 6 6 7 7 7 7 7 7 6 7 7 7 7 7 8 8 8 9 9
7 6 6 6 6 6 6 5 5 5 5 5 6 6 6 6 6 7 7 8 8 8 8 7 7 7 8 8 9 9 8 8 8 8 8 8 8 8 8 9 9 10 10
8 8 8 8 7 7 7 7 6 6 6 6 6 7 7 7 7 7 8 8 8 8 8 8 8 8 8 8 9 9 9 9 10 9 9 9 9 9 9 10 10 11 11
9 8 9 9 8 8 8 8 8 8 7 7 8 9 9 8 8 9 9 9 9 9 9 9 9 9 9 9 10 10 10 10 10 10 10 11 11 10 11 11 11 12 12
9 9 9 9 9 9 9 9 9 9 9 9 9 9 9 9 9 9 9 9 10 10 10 10 10 10 10 11 11 11 11 11 11 11 11 11 12 12 12 12 12 12 12
9 9 9 9 9 9 10 10 9 9 9 9 9 10 9 9 9 10 10 11 11 11 11 11 11 10 11 11 12 12 12 12 11 12 12 12 13 13 13 13 13 13 13
9 8 8 9 9 9 10 9 9 9 9 9 10 10 10 10 10 10 10 11 11 12 12 12 12 12 12 12 13 13 12 12 12 12 12 12 12 13 13 13 14 13 13
8 8 8 8 8 8 9 9 9 9 9 9 10 10 11 11 10 10 10 11 12 13 13 13 12 13 13 13 13 13 13 13 13 13 13 13 13 13 13 13 14 14 14
8 8 8 8 8 8 9 9 9 9 9 9 10 10 10 11 11 11 12 13 13 14 14 14 14 14 14 14 14 14 14 14 14 14 14 14 14 14 14 14 14 14 14
8 8 8 8 9 9 9 9 10 10 10 11 11 11 11 11 12 13 13 14 14 15 15 15 15 15 15 16 16 15 15 15 15 15 15 15 15 15 15 15 16 15 15
8 8 8 9 9 10 10 10 11 11 12 12 12 12 13 13 13 14 14 15 15 16 16 15 16 16 17 17 17 16 16 16 16 16 16 16 16 17 17 17 17 17 16
8 9 9 9 10 10 11 11 12 12 13 13 13 14 14 14 15 15 15 15 16 16 16 16 17 17 17 17 18 17 17 17 16 16 16 16 16 16 16 16 17 17 18
9 9 9 10 10 11 11 12 12 12 13 13 14 14 15 14 15 15 15 16 16 16 16 17 17 17 17 18 18 18 18 18 17 16 17 17 17 17 17 16 16 17 17
9 9 10 10 11 11 11 12 12 13 13 13 14 15 15 15 15 15 15 16 16 16 16 17 18 18 18 18 18 18 18 18 18 17 17 17 17 17 18 18 17 17 18
10 10 11 11 11 11 12 12 12 13 13 14 14 15 15 15 15 15 16 16 17 17 17 18 18 19 19 19 19 18 18 18 18 17 17 17 17 17 17 18 18 18 18
11 11 11 12 12 12 12 12 13 13 14 14 15 15 15 15 15 16 16 17 17 18 18 18 18 19 19 19 18 18 18 18 18 17 17 17 17 17 18 18 18 18 18
11 11 12 12 12 12 13 13 13 13 14 14 15 15 15 15 15 16 17 17 18 18 18 18 18 19 19 19 18 18 18 18 18 18 18 18 18 18 18 18 19 19 19
12 12 12 12 13 13 13 13 13 14 14 14 14 14 14 15 16 16 16 17 17 17 18 18 18 19 19 19 19 19 18 18 18 19 19 19 18 18 19 19 19 20 19
13 12 12 12 12 13 13 14 14 14 14 14 14 14 14 15 15 15 16 16 17 17 18 18 18 18 18 19 19 19 19 18 18 19 18 19 19 18 19 19 19 19 19
13 13 13 13 13 13 13 13 13 13 13 13 14 14 14 14 15 16 16 16 16 17 17 17 18 18 18 18 18 19 18 18 18 18 18 19 19 19 19 20 20 19 19
13 13 13 13 13 13 13 13 13 13 13 13 13 14 14 15 15 15 16 16 16 16 17 17 17 17 17 17 18 18 18 19 19 19 19 19 19 19 20 20 20 20 20
14 14 14 14 13 13 13 13 13 13 13 13 13 13 14 14 15 15 16 17 17 16 17 17 16 16 16 16 17 18 19 19 19 20 20 20 20 20 20 20 20 21 21
15 15 15 15 15 15 14 14 14 14 13 13 14 14 14 14 15 16 16 17 17 17 17 17 16 16 17 17 18 18 18 19 20 20 20 20 20 20 20 20 20 21 21
Wind_Direction
226 230 233 244 244 240 237 238 241 249 248 245 235 230 227 226 234 240 238 239 234 226 225 220 218 224 216 213 212 217 224 229 226 227 223 226 232 230 231 232 234 236 234
236 242 243 245 253 255 249 252 256 261 250 254 253 246 242 243 244 251 259 270 273 257 244 235 238 237 230 226 225 229 235 242 237 236 233 230 233 235 232 236 240 245 252
241 247 251 248 252 256 258 262 262 260 255 253 253 248 249 250 251 251 258 265 270 271 263 259 257 251 248 243 238 239 240 244 245 245 244 240 240 241 242 244 246 250 257
250 250 251 247 252 255 256 264 266 264 258 254 250 244 251 256 256 256 259 263 266 270 270 273 273 268 264 258 252 248 246 248 250 251 249 249 250 250 247 247 248 254 258
253 250 249 248 254 256 258 259 259 260 262 255 251 250 255 260 262 263 263 263 265 268 271 274 278 278 272 265 259 255 253 257 259 253 250 253 254 255 255 252 252 256 258
251 252 252 255 258 258 257 255 259 264 261 261 261 263 262 262 264 268 269 265 266 269 272 275 276 275 272 264 261 258 258 261 261 255 254 256 257 255 260 261 261 262 259
255 258 257 256 256 260 260 258 262 263 266 267 267 267 271 267 266 269 272 268 267 270 272 276 277 274 269 264 259 260 260 261 261 257 256 257 260 260 261 264 265 266 264
254 256 258 261 262 262 263 263 263 263 264 266 271 275 277 274 272 270 272 271 271 271 272 273 275 276 273 267 261 262 263 264 264 262 259 258 260 260 262 263 264 266 265
256 256 256 257 259 260 263 263 263 265 267 269 271 273 275 275 275 272 269 271 273 274 274 273 273 276 274 270 268 267 265 264 265 264 262 262 262 260 262 263 264 265 266
254 255 255 254 256 259 260 261 262 266 269 270 272 273 274 272 274 274 268 269 270 274 275 273 272 273 273 272 272 270 268 266 262 261 263 264 264 262 262 263 265 266 267
256 257 256 255 257 260 259 260 264 267 269 271 270 273 274 272 272 272 270 270 271 273 275 273 273 274 273 272 272 270 268 266 263 263 264 265 265 263 262 264 266 267 266
259 259 258 258 261 262 263 264 267 270 271 276 277 278 279 277 275 273 273 271 271 271 272 272 272 274 274 275 274 273 270 268 267 266 265 266 266 264 262 264 266 268 268
260 261 261 261 262 264 266 267 270 272 273 276 278 279 280 280 278 275 275 275 275 275 274 273 273 272 272 273 274 273 271 268 267 264 265 267 267 267 264 264 266 267 268
262 265 266 267 267 267 268 270 271 272 276 278 279 281 282 282 282 277 276 276 275 276 275 273 273 273 273 273 273 274 271 270 270 269 267 269 269 268 266 266 267 266 267
266 268 271 272 272 271 271 272 274 276 279 280 283 284 285 285 284 281 281 279 278 277 276 275 275 274 273 274 274 274 272 272 272 269 269 269 270 271 270 270 269 267 267
272 273 275 277 276 275 275 276 278 281 282 283 284 286 286 285 285 282 282 284 284 281 280 279 278 276 276 276 276 274 272 271 271 270 269 268 269 269 270 271 270 267 269
277 278 278 280 278 278 279 280 281 282 284 286 286 288 287 286 287 286 283 284 284 282 281 281 280 278 276 275 275 274 272 271 271 270 270 268 268 269 269 268 267 267 266
278 279 280 281 282 280 282 283 284 284 285 286 287 287 287 287 287 288 286 286 284 282 282 282 280 278 277 275 274 274 273 271 270 269 270 269 268 268 268 267 265 266 265
281 280 281 283 283 282 282 283 283 284 285 286 288 288 288 288 288 288 288 288 287 285 284 284 282 279 277 276 275 274 272 270 269 269 271 271 268 266 266 267 265 265 264
283 282 282 283 283 283 282 281 282 283 285 287 288 289 289 290 290 290 290 289 288 286 285 285 283 280 278 276 275 274 272 271 270 269 270 271 271 269 267 265 265 263 261
281 284 285 284 282 283 282 281 283 284 285 287 287 288 290 292 292 291 290 290 290 288 286 285 284 281 278 277 276 275 272 271 271 269 269 269 269 270 269 267 267 265 263
279 281 283 283 283 284 284 285 286 286 286 287 288 290 292 293 293 293 293 292 292 291 288 287 285 283 280 278 276 274 271 270 270 269 269 268 268 268 268 267 266 265 264
275 278 281 282 282 282 285 287 288 288 288 289 289 290 292 293 294 295 295 295 294 293 292 292 288 283 281 279 275 272 270 269 269 270 270 268 269 268 267 267 264 264 265
275 277 279 282 283 282 283 285 286 288 290 291 292 292 292 293 295 296 298 299 300 298 297 294 291 286 283 281 277 273 271 270 270 271 271 269 270 270 269 267 265 265 265
274 276 277 279 280 280 282 283 285 287 289 292 294 295 295 296 295 297 299 300 300 299 300 296 292 289 286 284 280 275 273 272 271 271 271 270 268 268 269 268 266 265 265
273 275 276 277 278 278 280 281 283 285 288 291 293 294 297 299 298 297 297 299 299 298 298 296 293 291 288 284 282 280 278 277 277 273 271 269 267 267 266 266 267 266 266
Height
5864 5864 5864 5865 5865 5866 5866 5866 5866 5866 5867 5867 5867 5868 5868 5869 5869 5869 5869 5870 5870 5870 5871 5871 5871 5872 5872 5872 5873 5873 5874 5875 5875 5876 5876 5877 5877 5878 5879 5879 5880 5881 5881
5863 5863 5864 5864 5865 5865 5866 5866 5866 5866 5866 5866 5867 5867 5868 5868 5869 5869 5869 5870 5870 5870 5871 5871 5871 5871 5872 5872 5872 5873 5874 5874 5875 5875 5876 5876 5877 5877 5878 5879 5879 5880 5881
5863 5863 5864 5864 5864 5865 5865 5865 5865 5866 5866 5866 5866 5867 5867 5867 5868 5869 5869 5869 5869 5870 5870 5870 5871 5871 5871 5871 5872 5872 5873 5873 5874 5874 5875 5875 5876 5876 5877 5878 5878 5879 5880
5862 5862 5863 5863 5864 5864 5864 5865 5865 5865 5865 5865 5865 5866 5866 5866 5867 5868 5868 5869 5869 5869 5869 5870 5870 5870 5870 5870 5871 5871 5872 5872 5873 5873 5873 5874 5875 5875 5876 5877 5877 5878 5879
5861 5861 5862 5862 5863 5863 5864 5864 5864 5864 5864 5864 5865 5865 5865 5866 5866 5867 5867 5868 5868 5868 5868 5869 5869 5869 5869 5869 5869 5870 5871 5871 5871 5872 5872 5873 5873 5874 5875 5875 5876 5877 5877
5860 5860 5861 5861 5862 5862 5862 5863 5863 5863 5863 5864 5864 5864 5865 5865 5865 5865 5866 5866 5867 5867 5867 5867 5868 5868 5867 5867 5867 5869 5869 5870 5870 5871 5871 5872 5872 5872 5873 5874 5874 5875 5875
5859 5859 5859 5860 5860 5861 5861 5862 5862 5862 5862 5863 5863 5863 5863 5864 5864 5864 5865 5865 5865 5865 5866 5866 5866 5866 5866 5866 5866 5867 5868 5868 5869 5869 5870 5870 5870 5871 5871 5871 5872 5872 5873
5857 5857 5858 5858 5859 5859 5860 5860 5860 5861 5861 5861 5861 5862 5862 5862 5863 5863 5863 5863 5864 5864 5864 5864 5865 5865 5865 5865 5865 5865 5866 5867 5867 5867 5868 5868 5868 5869 5869 5869 5870 5870 5871
5855 5856 5856 5857 5857 5858 5858 5859 5859 5859 5859 5860 5860 5860 5860 5861 5861 5861 5861 5862 5862 5862 5863 5863 5863 5863 5863 5863 5863 5864 5864 5865 5865 5866 5866 5866 5866 5866 5867 5867 5868 5868 5869
5854 5854 5855 5855 5856 5856 5856 5857 5857 5858 5858 5858 5858 5859 5859 5859 5859 5859 5860 5860 5860 5860 5860 5861 5861 5861 5861 5861 5861 5862 5862 5863 5863 5864 5863 5863 5864 5864 5864 5865 5865 5866 5866
5852 5853 5853 5854 5854 5854 5855 5855 5855 5856 5856 5856 5856 5857 5857 5857 5857 5858 5858 5858 5858 5858 5858 5858 5858 5859 5859 5859 5859 5860 5860 5860 5861 5861 5861 5861 5861 5862 5862 5862 5863 5863 5864
5851 5851 5852 5852 5852 5853 5853 5853 5854 5854 5854 5854 5854 5855 5855 5855 5855 5855 5856 5856 5856 5856 5856 5856 5856 5856 5856 5857 5857 5857 5857 5858 5859 5859 5859 5859 5859 5859 5860 5860 5860 5861 5861
5849 5850 5850 5850 5851 5851 5851 5852 5852 5852 5852 5852 5852 5852 5852 5853 5853 5853 5853 5853 5853 5853 5853 5853 5853 5853 5854 5854 5854 5854 5855 5855 5855 5856 5856 5856 5856 5856 5857 5857 5858 5858 5859
5848 5848 5849 5849 5849 5849 5849 5850 5850 5850 5850 5850 5850 5850 5850 5850 5850 5850 5850 5850 5850 5850 5850 5850 5850 5850 5851 5851 5851 5851 5852 5852 5852 5852 5853 5853 5853 5853 5854 5854 5854 5855 5856
5846 5847 5847 5847 5847 5847 5847 5847 5848 5848 5848 5848 5847 5847 5847 5847 5847 5847 5847 5846 5846 5846 5847 5847 5847 5847 5847 5847 5848 5848 5848 5848 5849 5849 5849 5850 5850 5850 5850 5851 5851 5852 5852
5845 5845 5845 5845 5845 5845 5845 5845 5845 5845 5845 5845 5845 5845 5844 5844 5844 5844 5843 5843 5843 5843 5843 5843 5843 5843 5844 5844 5844 5844 5844 5845 5845 5845 5846 5846 5846 5847 5847 5848 5848 5849 5849
5843 5843 5843 5842 5842 5842 5842 5842 5842 5842 5842 5842 5842 5842 5841 5841 5840 5840 5840 5840 5839 5839 5839 5839 5839 5839 5840 5840 5840 5840 5841 5841 5841 5842 5842 5842 5843 5843 5844 5844 5845 5845 5845
5841 5841 5840 5840 5840 5840 5840 5840 5839 5839 5839 5839 5839 5838 5838 5838 5837 5837 5837 5836 5836 5836 5835 5835 5835 5835 5835 5836 5836 5836 5837 5837 5837 5838 5838 5838 5839 5839 5840 5840 5841 5841 5842
5839 5838 5838 5838 5838 5837 5837 5837 5837 5837 5836 5836 5835 5835 5835 5834 5834 5834 5833 5833 5832 5832 5831 5831 5831 5831 5831 5831 5831 5832 5832 5833 5833 5833 5834 5834 5835 5835 5836 5836 5837 5838 5838
5836 5836 5836 5835 5835 5835 5834 5834 5834 5834 5833 5833 5832 5832 5832 5831 5831 5830 5830 5829 5829 5828 5828 5827 5827 5826 5826 5827 5827 5827 5828 5828 5829 5829 5829 5830 5830 5831 5832 5832 5833 5834 5834
5834 5834 5833 5833 5832 5832 5832 5831 5831 5831 5830 5830 5829 5829 5828 5828 5827 5827 5826 5825 5825 5824 5823 5823 5822 5822 5822 5822 5823 5823 5823 5823 5824 5824 5825 5826 5826 5827 5827 5828 5829 5829 5830
5831 5831 5831 5830 5830 5829 5829 5828 5828 5828 5827 5827 5826 5826 5825 5824 5824 5823 5822 5822 5821 5820 5819 5819 5818 5818 5817 5817 5818 5818 5819 5820 5819 5820 5820 5821 5822 5822 5823 5823 5824 5825 5825
5829 5828 5828 5828 5827 5826 5826 5825 5825 5824 5824 5823 5823 5822 5822 5821 5820 5820 5819 5818 5817 5816 5815 5814 5814 5813 5813 5813 5813 5814 5814 5815 5815 5816 5816 5816 5817 5817 5818 5818 5819 5820 5821
5825 5825 5825 5825 5824 5823 5823 5822 5822 5821 5821 5821 5820 5819 5819 5818 5817 5817 5816 5815 5814 5813 5811 5810 5809 5809 5808 5808 5808 5809 5809 5810 5811 5811 5811 5811 5812 5812 5813 5813 5814 5815 5815
5822 5822 5822 5821 5821 5820 5820 5819 5819 5819 5818 5818 5817 5816 5816 5815 5814 5813 5813 5811 5810 5809 5808 5806 5805 5804 5804 5804 5804 5804 5804 5805 5806 5806 5806 5807 5807 5807 5807 5808 5809 5809 5810
5819 5819 5818 5818 5817 5817 5816 5816 5816 5815 5815 5814 5814 5813 5813 5812 5811 5810 5809 5808 5806 5805 5804 5803 5802 5801 5800 5800 5799 5799 5799 5800 5800 5800 5801 5801 5802 5802 5802 5803 5803 5804 5804